Date String (YYYY-MM-DD hh:mm:ss) UTC,Instrument flags,Ambient pressure (hPa),Sample flow (lpm),Bypass flow (lpm),Sample temperature (°C),Ambient temperature (°C),ASC tube jacket temperature (°C),LED temperature (°C),Box temperature (°C),Sample RH (%),Span deviation,Mass concentration (μg/m³),Mass concentration (μg/m³),Mass concentration (μg/m³)
DateTimeUTC,F1_M11,P_M11,Q1_M11,Q2_M11,T1_M11,T2_M11,T3_M11,T4_M11,T5_M11,U1_M11,ZSPAN_M11,X2_M11,X0_M11,X1_M11
2021-12-08 07:00:00,,0820.6,5.00,0.00,23.1,22.3,00.0,32.0,24.9,11.0,0000.0,0005.34,0023.96,0002.95
2021-12-08 07:01:00,,0820.6,5.00,0.00,23.1,22.3,00.0,32.0,24.8,10.9,0000.0,0005.25,0022.66,0002.86
2021-12-08 07:02:00,,0820.6,4.99,0.00,23.1,22.3,00.0,32.0,24.8,11.0,0000.0,0005.22,0021.71,0002.79
2021-12-08 07:03:00,,0820.6,5.00,0.00,23.1,22.3,00.0,32.0,24.8,11.1,0000.0,0005.23,0021.52,0002.77
2021-12-08 07:04:00,,0820.6,5.00,0.00,23.1,22.3,00.0,32.0,24.9,11.2,0000.0,0005.15,0019.93,0002.79
2021-12-08 07:05:00,,0820.6,5.00,0.00,23.1,22.3,00.0,32.0,24.9,11.1,0000.0,0005.11,0021.06,0002.79
2021-12-08 07:06:00,,0820.6,4.99,0.00,23.1,22.3,00.0,32.0,24.8,10.9,0000.0,0005.05,0022.13,0002.74
2021-12-08 07:07:00,,0820.6,5.00,0.00,23.1,22.3,00.0,32.0,24.8,11.0,0000.0,0004.97,0020.46,0002.69
2021-12-08 07:08:00,,0820.6,5.01,0.00,23.1,22.3,00.0,32.0,24.8,11.0,0000.0,0004.90,0020.09,0002.65
2021-12-08 07:09:00,,0820.6,5.00,0.00,23.1,22.3,00.0,32.0,24.8,10.9,0000.0,0004.85,0019.84,0002.56
2021-12-08 07:10:00,,0820.6,4.99,0.00,23.1,22.3,00.0,32.0,24.8,10.9,0000.0,0004.77,0020.25,0002.46
2021-12-08 07:11:00,,0820.6,5.01,0.00,23.0,22.3,00.0,32.0,24.8,10.9,0000.0,0004.70,0019.51,0002.39
2021-12-08 07:12:00,,0820.6,4.99,0.00,23.0,22.3,00.0,32.0,24.8,10.9,0000.0,0004.62,0019.41,0002.37
2021-12-08 07:13:00,,0820.6,5.00,0.00,23.0,22.3,00.0,32.0,24.8,11.0,0000.0,0004.53,0021.87,0002.36
2021-12-08 07:14:00,,0820.6,5.00,0.00,23.0,22.3,00.0,32.0,24.8,11.0,0000.0,0004.38,0021.84,0002.31
2021-12-08 07:15:00,,0820.6,4.97,0.00,23.0,22.2,00.0,32.0,24.8,11.0,0000.0,0004.28,0021.53,0002.24
2021-12-08 07:16:00,,0820.6,5.02,0.00,23.0,22.2,00.0,32.0,24.8,11.0,0000.0,0004.15,0020.43,0002.15
2021-12-08 07:17:00,,0820.6,4.99,0.00,23.0,22.2,00.0,32.0,24.8,11.0,0000.0,0004.03,0018.39,0002.11
2021-12-08 07:18:00,,0820.6,5.02,0.00,23.0,22.2,00.0,32.0,24.8,11.0,0000.0,0003.98,0018.51,0002.10
2021-12-08 07:19:00,,0820.6,4.99,0.00,23.0,22.2,00.0,32.0,24.8,11.1,0000.0,0004.00,0018.83,0002.13
2021-12-08 07:20:00,,0820.6,5.01,0.00,23.0,22.2,00.0,32.0,24.8,11.2,0000.0,0004.05,0018.11,0002.18
2021-12-08 07:21:00,,0820.6,5.00,0.00,23.0,22.2,00.0,32.0,24.8,11.1,0000.0,0004.13,0018.35,0002.27
2021-12-08 07:22:00,,0820.6,5.00,0.00,23.0,22.2,00.0,32.0,24.8,11.0,0000.0,0004.10,0019.28,0002.30
2021-12-08 07:23:00,,0820.6,5.00,0.00,23.0,22.2,00.0,32.0,24.8,11.1,0000.0,0004.17,0021.74,0002.34
2021-12-08 07:24:00,,0820.6,5.01,0.00,23.0,22.2,00.0,32.0,24.8,11.1,0000.0,0004.27,0020.84,0002.38
2021-12-08 07:25:00,,0820.6,4.97,0.00,23.0,22.2,00.0,32.0,24.7,11.2,0000.0,0004.37,0021.25,0002.39
2021-12-08 07:26:00,,0820.5,5.00,0.00,23.0,22.2,00.0,32.0,24.8,11.2,0000.0,0004.40,0022.59,0002.44
2021-12-08 07:27:00,,0820.6,5.02,0.00,23.0,22.2,00.0,32.0,24.8,11.3,0000.0,0004.45,0022.31,0002.51
2021-12-08 07:28:00,,0820.6,5.00,0.00,23.0,22.2,00.0,32.0,24.8,11.3,0000.0,0004.57,0023.02,0002.58
2021-12-08 07:29:00,,0820.6,5.00,0.00,23.0,22.2,00.0,32.0,24.8,11.2,0000.0,0004.60,0022.84,0002.61
2021-12-08 07:30:00,,0820.6,5.00,0.00,23.0,22.2,00.0,32.0,24.7,11.2,0000.0,0004.64,0022.18,0002.63
2021-12-08 07:31:00,,0820.6,4.99,0.00,23.0,22.2,00.0,32.0,24.8,11.3,0000.0,0004.69,0023.43,0002.63
2021-12-08 07:32:00,,0820.6,5.01,0.00,23.0,22.2,00.0,32.0,24.7,11.4,0000.0,0004.71,0023.00,0002.63
2021-12-08 07:33:00,,0820.6,5.01,0.00,23.0,22.2,00.0,32.0,24.7,11.2,0000.0,0004.79,0022.85,0002.66
2021-12-08 07:34:00,,0820.6,5.00,0.00,23.0,22.2,00.0,32.0,24.7,11.2,0000.0,0004.84,0021.84,0002.71
2021-12-08 07:35:00,,0820.5,4.99,0.00,23.0,22.2,00.0,32.0,24.7,11.3,0000.0,0004.85,0021.45,0002.73
2021-12-08 07:36:00,,0820.6,5.00,0.00,22.9,22.2,00.0,32.0,24.7,11.3,0000.0,0004.91,0021.97,0002.76
2021-12-08 07:37:00,,0820.5,5.01,0.00,22.9,22.2,00.0,31.9,24.7,11.3,0000.0,0004.98,0022.90,0002.77
2021-12-08 07:38:00,,0820.5,4.99,0.00,22.9,22.2,00.0,31.9,24.7,11.3,0000.0,0005.02,0023.32,0002.78
2021-12-08 07:39:00,,0820.5,5.01,0.00,22.9,22.1,00.0,31.9,24.7,11.3,0000.0,0005.07,0023.73,0002.79
2021-12-08 07:40:00,,0820.5,5.01,0.00,22.9,22.1,00.0,31.9,24.7,11.3,0000.0,0005.12,0024.49,0002.82
2021-12-08 07:41:00,,0820.5,5.00,0.00,22.9,22.1,00.0,31.9,24.6,11.3,0000.0,0005.14,0024.78,0002.83
2021-12-08 07:42:00,,0820.4,5.00,0.00,22.9,22.1,00.0,31.9,24.7,11.3,0000.0,0005.17,0024.86,0002.86
2021-12-08 07:43:00,,0820.4,5.00,0.00,22.9,22.1,00.0,31.9,24.7,11.3,0000.0,0005.21,0024.72,0002.88
2021-12-08 07:44:00,,0820.5,5.02,0.00,22.9,22.1,00.0,31.9,24.7,11.3,0000.0,0005.17,0024.69,0002.89
2021-12-08 07:45:00,,0820.5,5.00,0.00,22.9,22.1,00.0,31.9,24.6,11.3,0000.0,0005.15,0025.07,0002.89
2021-12-08 07:46:00,,0820.6,5.00,0.00,22.9,22.1,00.0,31.9,24.6,11.3,0000.0,0005.11,0024.53,0002.89
2021-12-08 07:47:00,,0820.6,5.00,0.00,22.9,22.1,00.0,31.9,24.6,11.3,0000.0,0005.04,0023.27,0002.88
2021-12-08 07:48:00,,0820.6,5.00,0.00,22.9,22.1,00.0,31.9,24.6,11.3,0000.0,0004.97,0021.41,0002.88
2021-12-08 07:49:00,,0820.6,5.00,0.00,22.9,22.1,00.0,31.9,24.6,11.3,0000.0,0004.92,0021.07,0002.87
2021-12-08 07:50:00,,0820.6,5.00,0.00,22.9,22.1,00.0,31.9,24.6,11.3,0000.0,0004.89,0022.36,0002.87
2021-12-08 07:51:00,,0820.6,4.99,0.00,22.8,22.1,00.0,31.9,24.6,11.3,0000.0,0004.84,0022.70,0002.85
2021-12-08 07:52:00,,0820.6,5.00,0.00,22.9,22.1,00.0,31.9,24.6,11.3,0000.0,0004.72,0021.63,0002.81
2021-12-08 07:53:00,,0820.6,5.00,0.00,22.8,22.1,00.0,31.9,24.6,11.3,0000.0,0004.68,0021.45,0002.79
2021-12-08 07:54:00,,0820.6,5.01,0.00,22.8,22.1,00.0,31.9,24.6,11.3,0000.0,0004.68,0021.46,0002.77
2021-12-08 07:55:00,,0820.6,4.99,0.00,22.8,22.1,00.0,31.9,24.6,11.3,0000.0,0004.68,0020.60,0002.76
2021-12-08 07:56:00,,0820.6,5.00,0.00,22.8,22.1,00.0,31.9,24.6,11.3,0000.0,0004.64,0020.26,0002.77
2021-12-08 07:57:00,,0820.5,5.00,0.00,22.8,22.0,00.0,31.9,24.6,11.3,0000.0,0004.64,0019.81,0002.77
2021-12-08 07:58:00,,0820.5,5.00,0.00,22.8,22.0,00.0,31.9,24.5,11.3,0000.0,0004.69,0019.89,0002.79
2021-12-08 07:59:00,,0820.4,5.00,0.00,22.8,22.0,00.0,31.9,24.6,11.3,0000.0,0004.74,0021.01,0002.80
